Location: Pl�tzky
(52.0521°N, 11.8020°E)
Time: 20:49:23
(UTC+00:00)

USA 229 - Pass Details

Date: 22 February 2020
Orbit: 986 x 1226 km, 63.4° (Epoch: 26 March)

Event Time Altitude Azimuth Distance (km) Brightness Sun altitude
Rises 19:10:40 0° 243° (WSW) 3,736 7.3 -23.9°
Reaches altitude 10° 19:13:16 10° 248° (WSW) 2,811 6.6 -24.3°
Maximum altitude 19:19:47 57° 326° (NNW) 1,234 4.2 -25.3°
Enters shadow 19:24:47 20° 40° (NE) 2,323 5.2 -26.0°
